Location: Brantley
(31.5822°N, 86.2569°W)
Time: 05:25:51
(UTC+00:00)

Courier 1B Rocket - Pass Details

Date: 20 February 2026
Orbit: 920 x 1201 km, 28.2° (Epoch: 5 March)

Event Time Altitude Azimuth Distance (km) Brightness Sun altitude
Rises 21:03:24 0° 205° (SSW) 3,638 8.9 28.9°
Reaches altitude 10° 21:07:33 10° 180° (S) 2,648 7.9 28.1°
Maximum altitude 21:10:34 14° 151° (SSE) 2,364 7.2 27.6°
Drops below altitude 10° 21:13:32 10° 122° (ESE) 2,609 7.1 27.1°
Sets 21:17:33 0° 98° (E) 3,545 7.5 26.4°
